Home > Weather > Aliso Viejo > Past weeks

Flag for USA Weather for the Past 2 Weeks in Aliso Viejo, California, USA

Now
63 °F

Broken clouds.


Feels Like: 63 °F
Forecast: 56 / 66 °F
Wind: 7 mph from Southwest

Location: John Wayne Airport-Orange County Airport

Current Time: Apr 30, 2016 at 12:45:42 PM

Latest Report: Apr 30, 2016 at 11:53 AM


Visibility: 10 mi

Pressure: 29.83 "Hg

Humidity: 63%

Dew Point: 50 °F

Location of Aliso ViejoLocation

Historic Weather in Aliso Viejo — Graph

°F

Aliso Viejo Temperature Yesterday

Maximum temperature yesterday: 68 °F (at 2:53 PM)
Minimum temperature yesterday: 55 °F (at 5:53 AM)
Average temperature yesterday: 60 °F

High & Low Weather Summary for the Past Weeks

 TemperatureHumidityPressure
High88 °F (Apr 17, 11:53 AM)93% (Apr 30, 5:53 AM)30.06 "Hg (Apr 30, 5:53 AM)
Low52 °F (Apr 26, 4:53 AM)7% (Apr 17, 11:53 AM)29.75 "Hg (Apr 27, 11:53 PM)
Average65 °F53%29.92 "Hg
* Reported Apr 15 11:53 AM — Apr 30 11:53 AM, Aliso Viejo, Weather by CustomWeather, © 2016

Note: Actual official high and low records may vary slightly from our data, if they occured in-between our weather recording intervals... More about our weather records

Advertising

Aliso Viejo Weather History for the Previous 24 Hours

Scroll right to see more
 ConditionsComfort  
Time TempWeatherWind HumidityBarometerVisibility
11:53 AM
Sat, Apr 30
63 °FBroken clouds.7 mph63%29.83 "Hg10 mi
10:53 AM63 °FPartly sunny.10 mph63%29.83 "Hg10 mi
10:00 AM63 °FPartly sunny.6 mph59%29.83 "Hg10 mi
8:53 AM59 °FPartly sunny.3 mph69%29.84 "Hg10 mi
8:02 AM57 °FPartly sunny.6 mph77%29.84 "Hg10 mi
7:53 AM58 °FBroken clouds.5 mph75%29.84 "Hg10 mi
6:53 AM57 °FMostly cloudy.No wind78%29.84 "Hg10 mi
5:53 AM55 °FLight rain. Fog.No wind93%29.82 "Hg6 mi
4:53 AM56 °FFog.7 mph87%29.83 "Hg6 mi
3:53 AM56 °FOvercast.5 mph84%29.84 "Hg10 mi
2:53 AM58 °FOvercast.6 mph78%29.85 "Hg9 mi
1:53 AM58 °FOvercast.No wind78%29.86 "Hg10 mi
12:53 AM58 °FOvercast.6 mph78%29.89 "Hg10 mi
11:53 PM
Fri, Apr 29
58 °FOvercast.3 mph78%29.89 "Hg10 mi
10:53 PM58 °FPassing clouds.No wind78%29.91 "Hg9 mi
9:53 PM58 °FPassing clouds.5 mph78%29.92 "Hg10 mi
8:53 PM58 °FClear.3 mph78%29.93 "Hg10 mi
7:53 PM59 °FScattered clouds.8 mph75%29.92 "Hg10 mi
6:53 PM60 °FScattered clouds.8 mph75%29.92 "Hg10 mi
5:53 PM62 °FScattered clouds.9 mph70%29.93 "Hg10 mi
4:53 PM65 °FScattered clouds.9 mph59%29.94 "Hg10 mi
3:53 PM66 °FScattered clouds.10 mph56%29.96 "Hg10 mi
2:53 PM68 °FBroken clouds.13 mph53%29.98 "Hg10 mi
1:53 PM66 °FBroken clouds.10 mph56%30.00 "Hg10 mi
12:53 PM66 °FBroken clouds.10 mph56%30.01 "Hg10 mi
Weather by CustomWeather, © 2016

See weather overviewHow to use our weather pages